BSAT-4A

Last updated on Sun Jun 21 2026 00:03:07 GMT+0000 (Coordinated Universal Time)

1 42951U 17059B 26170.99838896 -.00000355 00000+0 00000+0 0 9991 2 42951 0.0337 353.9231 0004056 76.8596 306.6773 1.00270250 31821
UTC large
Height (km)
Speed (km/s)
/
Latitude / Longitude
Inclination (degrees)
Orbital Period (minutes)
Azimuth
Elevation
Range (km)
Doppler Factor

Next 0 passes for location: London (51.5072 / 0.1276)

No passes found over London.
BSAT-4A